Location: Il Ritiro
(43.4167°N, 13.1333°E)
Time: 16:49:25
(UTC+00:00)

Cosmos 2366 rocket - Pass Details

Date: 05 July 2020
Orbit: 954 x 998 km, 82.9° (Epoch: 10 August)

Event Time Altitude Azimuth Distance (km) Brightness Sun altitude
Exits shadow 22:56:31 49° 192° (SSW) 1,261 4.1 -23.8°
Maximum altitude 22:58:23 86° 278° (W) 1,007 4.0 -23.8°
Drops below altitude 10° 23:04:47 10° 7° (N) 2,771 7.4 -23.9°
Sets 23:07:19 0° 8° (N) 3,721 8.4 -23.9°
